Regional Weather Roundup
Issued by NWS

Home | Current Version | Previous Version | Text Only | Print | Product List | Glossary On
Versions: 1 2 3 4 5 6 7 8 9 10 11 12 13 14 15 16 17 18 19 20 21 22 23 24 25 26 27 28 29 30 31 32 33 34 35 36 37 38 39 40 41 42 43 44 45 46 47 48 49 50
000
ASUS43 KBIS 231402
RWRND

NORTH DAKOTA REGIONAL WEATHER ROUNDUP
NATIONAL WEATHER SERVICE BISMARCK ND
900 AM CDT WED AUG 23 2017

NOTE: "FAIR" INDICATES FEW OR NO CLOUDS BELOW 12,000 FEET WITH NO
SIGNIFICANT WEATHER AND/OR OBSTRUCTIONS TO VISIBILITY.


NDZ001>003-009>011-017-231500-
NORTHWEST NORTH DAKOTA

CITY           SKY/WX    TMP DP  RH WIND       PRES   REMARKS
WILLISTON      SUNNY     63  45  51 S6        30.03S
MINOT          SUNNY     65  46  50 SE5       30.02S
MINOT AFB      SUNNY     63  48  58 S7        30.01S
$$

NDZ018>021-031>035-040>046-231500-
SOUTHWEST NORTH DAKOTA

CITY           SKY/WX    TMP DP  RH WIND       PRES   REMARKS
BISMARCK       SUNNY     57  51  80 E5        30.07F
DICKINSON      SUNNY     65  46  50 S14       30.06S
GARRISON         N/A     62  49  62 SE3       30.05S
HETTINGER ARPT SUNNY     61  47  59 SE6       30.08F
$$

NDZ004>008-012>016-024-026-027-054-231500-
NORTHEAST NORTH DAKOTA

CITY           SKY/WX    TMP DP  RH WIND       PRES   REMARKS
GRAND FORKS    PTSUNNY   59  52  77 CALM      30.10S
GRND FRKS AFB  MOSUNNY   57  50  79 CALM      30.11R
DEVILS LAKE    SUNNY     61  51  70 SE6       30.08F
$$

NDZ022-023-025-028>030-036>039-047>053-231500-
SOUTHEAST NORTH DAKOTA

CITY           SKY/WX    TMP DP  RH WIND       PRES   REMARKS
FARGO          SUNNY     60  52  74 CALM      30.12R
JAMESTOWN      SUNNY     57  52  83 S5        30.08F
$$




USA.gov is the U.S. government's official web portal to all federal, state and local government web resources and services.